Location: Newark
(33.6333°S, 78.8500°W)
Time: 00:58:22
(UTC+00:00)

Vanguard 1 - Pass Details

Date: 27 September 2019
Orbit: 653 x 3830 km, 34.2° (Epoch: 18 October)

Event Time Altitude Azimuth Distance (km) Brightness Sun altitude
Rises 01:46:32 0° 270° (W) 4,321 14.3 -31.4°
Reaches altitude 10° 01:49:54 10° 286° (WNW) 3,748 13.5 -32.0°
Maximum altitude 01:57:05 22° 331° (NNW) 3,707 12.9 -33.3°
Enters shadow 02:03:14 16° 1° (N) 4,712 13.2 -34.4°
